TimeCDT,TemperatureF,Dew PointF,Humidity,Sea Level PressureIn,VisibilityMPH,Wind Direction,Wind SpeedMPH,Gust SpeedMPH,PrecipitationIn,Events,Conditions,WindDirDegrees,DateUTC
12:53 AM,73.0,70.0,90,29.94,5.0,Calm,Calm,-,N/A,,Clear,0,2013-08-31 05:53:00
1:53 AM,73.0,70.0,90,29.93,5.0,Calm,Calm,-,N/A,,Clear,0,2013-08-31 06:53:00
2:53 AM,73.0,70.0,90,29.93,9.0,West,3.5,-,N/A,,Clear,270,2013-08-31 07:53:00
3:53 AM,73.0,70.0,90,29.94,7.0,Calm,Calm,-,N/A,,Clear,0,2013-08-31 08:53:00
4:53 AM,72.0,70.0,93,29.94,5.0,Calm,Calm,-,N/A,,Clear,0,2013-08-31 09:53:00
5:53 AM,71.1,69.1,93,29.95,5.0,Calm,Calm,-,N/A,,Clear,0,2013-08-31 10:53:00
6:53 AM,70.0,69.1,97,29.97,6.0,Calm,Calm,-,N/A,,Clear,0,2013-08-31 11:53:00
7:53 AM,75.0,72.0,90,29.98,9.0,Calm,Calm,-,N/A,,Clear,0,2013-08-31 12:53:00
8:53 AM,81.0,73.0,77,30.00,9.0,Calm,Calm,-,N/A,,Clear,0,2013-08-31 13:53:00
9:53 AM,82.9,73.9,74,29.99,10.0,Variable,3.5,-,N/A,,Partly Cloudy,0,2013-08-31 14:53:00
10:53 AM,84.0,70.0,63,29.99,10.0,West,4.6,-,N/A,,Scattered Clouds,260,2013-08-31 15:53:00
11:53 AM,87.1,70.0,57,29.97,10.0,West,5.8,-,N/A,,Scattered Clouds,270,2013-08-31 16:53:00
12:53 PM,87.1,69.1,55,29.96,10.0,Calm,Calm,-,N/A,,Scattered Clouds,0,2013-08-31 17:53:00
1:53 PM,89.1,70.0,53,29.94,10.0,Calm,Calm,-,N/A,,Scattered Clouds,0,2013-08-31 18:53:00
2:53 PM,90.0,69.1,50,29.91,10.0,Calm,Calm,-,N/A,,Partly Cloudy,0,2013-08-31 19:53:00
3:53 PM,91.0,69.1,48,29.88,10.0,West,8.1,-,N/A,,Scattered Clouds,270,2013-08-31 20:53:00
4:53 PM,91.0,69.1,48,29.87,10.0,Variable,3.5,-,N/A,,Partly Cloudy,0,2013-08-31 21:53:00
5:53 PM,91.0,69.1,48,29.86,10.0,West,5.8,-,N/A,,Scattered Clouds,280,2013-08-31 22:53:00
6:53 PM,89.1,70.0,53,29.86,10.0,WNW,3.5,-,N/A,,Scattered Clouds,290,2013-08-31 23:53:00
7:53 PM,84.0,72.0,67,29.88,10.0,Calm,Calm,-,N/A,,Partly Cloudy,0,2013-09-01 00:53:00
8:53 PM,81.0,73.9,79,29.89,10.0,Calm,Calm,-,N/A,,Clear,0,2013-09-01 01:53:00
9:53 PM,79.0,73.0,82,29.90,10.0,Calm,Calm,-,N/A,,Clear,0,2013-09-01 02:53:00
10:53 PM,81.0,73.0,77,29.90,10.0,SW,6.9,-,N/A,,Clear,230,2013-09-01 03:53:00
11:53 PM,80.1,73.0,79,29.90,10.0,SW,5.8,-,N/A,,Clear,230,2013-09-01 04:53:00